Location: Camps Bay
(33.9517°S, 18.3844°E)
Time: 19:43:51
(UTC+00:00)

STARLINK-1057 - Pass Details

Date: 18 January 2020
Orbit: 548 x 551 km, 53.0° (Epoch: 28 February)

Event Time Altitude Azimuth Distance (km) Brightness Sun altitude
Rises 02:55:50 0° 242° (WSW) 2,738 6.9 -11.1°
Reaches altitude 10° 02:58:36 10° 260° (W) 1,837 5.9 -10.7°
Maximum altitude 03:01:31 19° 305° (NW) 1,369 5.0 -10.2°
Drops below altitude 10° 03:04:26 10° 349° (N) 1,824 5.9 -9.7°
Sets 03:07:10 0° 8° (N) 2,712 6.9 -9.2°
